Погода в Мардане

Пакистан     34°11′27″N   72°03′00″E
темп.,
°C
ветер,
м/с
пор.,
м/с
влажн.,
%
обл.,
%
осадки,
мм/ч
давл.,
гПа
погр.,
м
28 февраля, вс
вс2823:00+14вюв12290 0.0 101223
02:00+13ссв23450 0.0 101223
05:00+12ссз23420 0.0 101123
08:00+14сз22390 0.0 101375
11:00+21зсз34200 0.0 1013648
14:00+25зсз33160 0.0 10121049
17:00+24з22220 0.0 101138
20:00+16в12290 0.0 101423
1 марта, пн
пн123:00+15с11330 0.0 101523
02:00+14с22370 0.0 101523
05:00+13ссз23350 0.0 101527
08:00+15ссз12360 0.0 101666
11:00+23сз34210 0.0 1017673
14:00+26зсз33160 0.0 10161228
17:00+25зсз22230 0.0 101548
20:00+18ссз22220 0.0 101823
2 марта, вт
вт223:00+16ссв23270 0.0 101923
02:00+14ссв22340 0.0 101923
05:00+12ссз22350 0.0 101723
08:00+15ссз113633 0.0 101851
11:00+22з222259 0.0 1017642
14:00+26з231790 0.0 10151049
17:00+25зюз112453 0.0 101327
20:00+18ссз122454 0.0 101523
3 марта, ср
ср323:00+16всв223027 0.0 101523
02:00+14св223118 0.0 101423
05:00+13с113213 0.0 101323
08:00+16ссз11330 0.0 101451
11:00+23зсз22210 0.0 1014517
14:00+27зсз111629 0.0 10121078
17:00+26сз222219 0.0 101138
20:00+18с11250 0.0 101323
4 марта, чт
чт423:00+17ссв33270 0.0 101423
02:00+14св12320 0.0 101323
05:00+14с23360 0.0 101323
08:00+17ссз01360 0.0 101436
11:00+24зсз22240 0.0 1015572
14:00+28зсз22180 0.0 10131262
17:00+27ссз12230 0.0 101234
20:00+19с22240 0.0 101423